Regional Weather Roundup
Issued by NWS

Home | Current Version | Previous Version | Text Only | Print | Product List | Glossary Off
Versions: 1 2 3 4 5 6 7 8 9 10 11 12 13 14 15 16 17 18 19 20 21 22 23 24 25 26 27 28 29 30 31 32 33 34 35 36 37 38 39 40 41 42 43 44 45 46 47 48 49 50

359
ASUS45 KBOU 230610
RWRCO

WEATHER ROUNDUP FOR COLORADO
NATIONAL WEATHER SERVICE PUEBLO CO
1100 PM MST THU FEB 22 2018

NOTE: "FAIR" INDICATES FEW OR NO CLOUDS BELOW 12000 FEET WITH NO
SIGNIFICANT WEATHER AND/OR OBSTRUCTIONS TO VISIBILITY.

COZ001>005-013-030-031-230700-
...NORTHWEST COLORADO...

CITY           SKY/WX    TMP DP  RH WIND       PRES   REMARKS
CRAIG          CLOUDY    21  16  81 E5        29.97F WCI  15
HAYDEN         CLOUDY    19  17  92 SE8       29.98S WCI   9
MEEKER         LGT SNOW  20  17  88 NE5       29.96S FOG     WCI  13
RABBIT EARS PA NOT AVBL
STEAMBOAT SPGS CLOUDY    19  18  94 E6        29.95F WCI  11
WALDEN         CLOUDY    14  10  85 CALM      29.92S
$$

COZ006>008-011-230700-
...WEST CENTRAL VALLEYS...

CITY           SKY/WX    TMP DP  RH WIND       PRES   REMARKS
GRAND JUNCTION CLOUDY    28  24  85 E6        30.00S WCI  22
MONTROSE       CLOUDY    29  17  61 SE6       30.00S WCI  23
EAGLE          FLURRIES  22  15  75 E6        29.99F WCI  14
RIFLE          LGT SNOW  26  25  96 SE3       30.00S FOG
DELTA          NOT AVBL
NUCLA          CLOUDY    25  14  63 SE7       30.02S WCI  17
$$

COZ017>023-064>068-230700-
...SOUTHWEST COLORADO...

CITY           SKY/WX    TMP DP  RH WIND       PRES   REMARKS
DURANGO        PTCLDY    23  16  74 E6        30.02S WCI  16
CORTEZ         CLOUDY    24  13  62 CALM      30.02R
PAGOSA SPRINGS FAIR      13  12  94 CALM      30.03S
TELLURIDE      LGT SNOW  18  13  82 SE8       29.95F WCI   7
WOLF CREEK PAS CLOUDY     5   3  92 S22G36    29.92F WCI -16
$$

COZ009-010-012-014-032>034-037-058>063-230700-
...CENTRAL COLORADO...

CITY           SKY/WX    TMP DP  RH WIND       PRES   REMARKS
ASPEN          CLOUDY    18  12  77 SE3       29.92F
BUENA VISTA    MOCLDY    13   8  78 CALM      29.96S
COPPER MTN     MOCLDY     9  -2  61 S13       29.84S WCI  -7
BERTHOUD PASS  FAIR       0 -13  55 SW9G23    29.82S WCI -16
COTTONWOOD PAS CLOUDY    19   9  63 W3        29.92S
GUNNISON       CLOUDY    18  11  74 VRB3      29.98
KREMMLING      FLURRIES  27  19  74 CALM      29.96R
LEADVILLE      CLOUDY     4  -2  76 CALM      29.88F
MONARCH PASS     N/A      3   0  85 SW26      29.96S WCI -20
SALIDA         FAIR      21   6  51 W8        30.06S WCI  11
SUNLIGHT       LGT SNOW   9   5  85 SW8       29.91S VSB 1   WCI  -4
WILKERSON PASS PTCLDY     5   1  85 S9G21     29.90S WCI  -9
$$

COZ069>075-230700-
...SAN LUIS VALLEY/SANGRE DE CRISTO MOUNTAINS...

CITY           SKY/WX    TMP DP  RH WIND       PRES   REMARKS
ALAMOSA        CLEAR     11   6  81 SE8       30.00F WCI  -1
DEL NORTE      CLOUDY    17  10  76 SW5       29.99F WCI  10
LA VETA PASS   CLEAR     14   5  67 S23G35    30.04F WCI  -5
SAGUACHE       CLEAR     12   5  73 S5        30.01S WCI   4
$$

COZ035-036-038>040-230700-
...NORTHERN COLORADO FRONT RANGE...

CITY           SKY/WX    TMP DP  RH WIND       PRES   REMARKS
DENVER INTL AP LGT SNOW  22  18  85 SW5       30.04S FOG     WCI  16
DMNS CITY PARK NOT AVBL
AURORA         MOCLDY    20  20  98 CALM      30.03F
FRONT RANGE AP LGT SNOW  22  20  91 SW3       30.04F
ERIE MUNI ARPT MOCLDY    18  17  93 CALM      30.09F
BOULDER MUN AP FAIR      23  21  93 S3        30.03F
CENTENNIAL     PTCLDY    20  18  92 W5        30.02F WCI  13
BROOMFIELD     NOT AVBL
LOVELAND       MOCLDY    19  15  84 SE3       30.05S FOG
LONGMONT       FAIR      16  10  77 W5        30.07F WCI   8
$$

COZ041-046-047-076>085-087-088-230700-
...PIKES PEAK/PALMER DIVIDE AND SOUTHERN FOOTHILLS...

CITY           SKY/WX    TMP DP  RH WIND       PRES   REMARKS
COLO. SPRINGS  PTCLDY    19  15  84 N7        30.00F WCI  10
A. F. ACADEMY  CLEAR     16  13  89 N6        29.99S WCI   7
SCHRIEVER AFB  NOT AVBL
CHEYENNE MTN   NOT AVBL
ELLICOTT         N/A    N/A N/A N/A CALM      30.00R
FALCON         FAIR      16  14  92 N5        30.00S WCI   9
FORT CARSON    CLEAR     20  16  84 N7        30.00S WCI  12
LIMON          PTCLDY    16  16 100 NW5       30.04R FOG     WCI   9
MONUMENT HILL  CLOUDY    19  18  93 W6        30.00S WCI  11
CANON CITY     CLEAR     27  18  69 E7        30.02R WCI  19
WALSENBURG     FAIR      32   7  34 W12       30.00S WCI  23
TRINIDAD       CLEAR     31   5  33 W6        30.02F WCI  25
$$

COZ042>045-048>051-090-091-230700-
...NORTHEAST COLORADO...

CITY           SKY/WX    TMP DP  RH WIND       PRES   REMARKS
GREELEY ARPT   PTCLDY    17  14  88 NW5       30.08R WCI  10
AKRON          CLOUDY    21  18  88 W6        30.06R WCI  13
BURLINGTON     FOG       20  19  96 W3        30.09R VSB 3/4
WRAY           FAIR      21  19  93 MISG      30.10S
YUMA           NOT AVBL
STERLING       CLOUDY    23  19  86 SW6       30.08R WCI  16
HOLYOKE        FAIR      25  21  86 SW3       30.09R
FORT MORGAN    CLOUDY    22  19  87 W5        30.08R WCI  16
$$

COZ086-089-092>099-230700-
...SOUTHEAST COLORADO...

CITY           SKY/WX    TMP DP  RH WIND       PRES   REMARKS
PUEBLO         CLEAR     26  19  74 NE3       30.05R
LA JUNTA       CLEAR     22  18  85 N8        30.07R WCI  12
LAMAR          CLEAR     17  12  80 CALM      30.07R
SPRINGFIELD      N/A     21   8  57 NW8       30.03S WCI  11
$$





USA.gov is the U.S. government's official web portal to all federal, state and local government web resources and services.